| time (UTC) | temp F | wind direction | speed MPH | gust MPH | rain 1hr in | rain 24hr in | rain mn in | humidity % | barometer mb |
| 20260505041557 | 70 | 77 | 1.0 | 11.0 | 0.00 | 0.00 | 0.00 | 71 | 1003.0 |
| 20260505040050 | 71 | 132 | 4.0 | 10.0 | 0.00 | 0.00 | 0.00 | 70 | 1002.6 |
| 20260505034542 | 72 | 202 | 4.0 | 10.0 | 0.00 | 0.00 | 0.00 | 69 | 1003.0 |
| 20260505033045 | 72 | 172 | 6.0 | 13.0 | 0.00 | 0.00 | 0.00 | 68 | 1003.3 |
| 20260505031553 | 72 | 188 | 6.0 | 13.0 | 0.00 | 0.00 | 0.00 | 67 | 1003.4 |
| 20260505030054 | 73 | 139 | 4.0 | 9.0 | 0.00 | 0.00 | 0.00 | 66 | 1003.4 |
| 20260505024544 | 73 | 171 | 3.0 | 11.0 | 0.00 | 0.00 | 0.00 | 65 | 1003.6 |
| 20260505023051 | 73 | 158 | 6.0 | 10.0 | 0.00 | 0.00 | 0.00 | 63 | 1003.6 |
| 20260505021545 | 73 | 178 | 5.0 | 10.0 | 0.00 | 0.00 | 0.00 | 62 | 1003.4 |
| 20260505020050 | 74 | 100 | 0.0 | 6.0 | 0.00 | 0.00 | 0.00 | 61 | 1003.4 |
| 20260505014549 | 74 | 154 | 4.0 | 9.0 | 0.00 | 0.00 | 0.00 | 60 | 1002.8 |
| 20260505013101 | 75 | 154 | 7.0 | 12.0 | 0.00 | 0.00 | 0.00 | 58 | 1002.2 |
| 20260505011552 | 75 | 132 | 5.0 | 11.0 | 0.00 | 0.00 | 0.00 | 56 | 1002.1 |
| 20260505004549 | 76 | 146 | 5.0 | 11.0 | 0.00 | 0.00 | 0.00 | 54 | 1002.1 |
| 20260505003047 | 77 | 144 | 6.0 | 14.0 | 0.00 | 0.00 | 0.00 | 54 | 1002.1 |
| 20260505001544 | 77 | 142 | 7.0 | 13.0 | 0.00 | 0.00 | 0.00 | 52 | 1002.4 |
| 20260505000057 | 78 | 180 | 6.0 | 13.0 | 0.00 | 0.00 | 0.00 | 52 | 1002.4 |
| 20260504234541 | 78 | 167 | 7.0 | 14.0 | 0.00 | 0.00 | 0.00 | 51 | 1002.4 |
| 20260504233055 | 78 | 192 | 8.0 | 15.0 | 0.00 | 0.00 | 0.00 | 50 | 1002.5 |
| 20260504231546 | 79 | 150 | 8.0 | 16.0 | 0.00 | 0.00 | 0.00 | 49 | 1002.5 |
| 20260504230053 | 79 | 190 | 7.0 | 15.0 | 0.00 | 0.00 | 0.00 | 48 | 1002.5 |
| 20260504224549 | 80 | 182 | 7.0 | 17.0 | 0.00 | 0.00 | 0.00 | 47 | 1002.5 |
| 20260504223058 | 80 | 184 | 8.0 | 18.0 | 0.00 | 0.00 | 0.00 | 47 | 1002.4 |
| 20260504221549 | 81 | 160 | 9.0 | 17.0 | 0.00 | 0.00 | 0.00 | 45 | 1002.3 |
| 20260504220049 | 81 | 161 | 9.0 | 17.0 | 0.00 | 0.00 | 0.00 | 45 | 1002.5 |
| 20260504214555 | 83 | 181 | 10.0 | 18.0 | 0.00 | 0.00 | 0.00 | 44 | 1002.5 |
| 20260504213044 | 84 | 161 | 9.0 | 18.0 | 0.00 | 0.00 | 0.00 | 42 | 1002.4 |
| 20260504211551 | 84 | 189 | 10.0 | 19.0 | 0.00 | 0.00 | 0.00 | 42 | 1002.6 |
| 20260504210047 | 84 | 200 | 4.0 | 13.0 | 0.00 | 0.00 | 0.00 | 45 | 1002.8 |
| 20260504204550 | 84 | 196 | 7.0 | 17.0 | 0.00 | 0.00 | 0.00 | 40 | 1002.9 |
| 20260504203048 | 84 | 178 | 7.0 | 14.0 | 0.00 | 0.00 | 0.00 | 41 | 1003.0 |
| 20260504201558 | 84 | 186 | 4.0 | 11.0 | 0.00 | 0.00 | 0.00 | 42 | 1003.3 |
| 20260504200051 | 83 | 248 | 4.0 | 9.0 | 0.00 | 0.00 | 0.00 | 43 | 1003.6 |
| 20260504194553 | 81 | 161 | 3.0 | 11.0 | 0.00 | 0.00 | 0.00 | 43 | 1003.9 |
| 20260504193055 | 82 | 221 | 4.0 | 12.0 | 0.00 | 0.00 | 0.00 | 41 | 1004.0 |
| 20260504191557 | 81 | 242 | 3.0 | 12.0 | 0.00 | 0.00 | 0.00 | 44 | 1004.3 |
| 20260504190058 | 81 | 223 | 5.0 | 11.0 | 0.00 | 0.00 | 0.00 | 43 | 1004.4 |
| 20260504184608 | 81 | 244 | 5.0 | 12.0 | 0.00 | 0.00 | 0.00 | 46 | 1004.7 |
| 20260504183050 | 80 | 198 | 6.0 | 12.0 | 0.00 | 0.00 | 0.00 | 43 | 1004.7 |
| 20260504181556 | 79 | 254 | 5.0 | 13.0 | 0.00 | 0.00 | 0.00 | 44 | 1004.9 |
| 20260504180055 | 79 | 242 | 6.0 | 11.0 | 0.00 | 0.00 | 0.00 | 44 | 1005.1 |
| 20260504174551 | 78 | 270 | 6.0 | 13.0 | 0.00 | 0.00 | 0.00 | 46 | 1005.2 |
| 20260504173051 | 77 | 223 | 6.0 | 12.0 | 0.00 | 0.00 | 0.00 | 48 | 1005.2 |
| 20260504171557 | 75 | 216 | 4.0 | 11.0 | 0.00 | 0.00 | 0.00 | 48 | 1005.2 |
| 20260504140106 | 67 | 231 | 6.0 | 19.0 | 0.00 | 0.00 | 0.00 | 56 | 1005.6 |
| 20260504120109 | 63 | 194 | 8.0 | 14.0 | 0.00 | 0.00 | 0.00 | 58 | 1005.4 |
| 20260504110104 | 64 | 181 | 9.0 | 17.0 | 0.00 | 0.00 | 0.00 | 54 | 1005.6 |
| 20260504081544 | 67 | 208 | 11.0 | 23.0 | 0.00 | 0.00 | 0.00 | 48 | 1006.8 |
| 20260504044546 | 71 | 227 | 10.0 | 20.0 | 0.00 | 0.00 | 0.00 | 41 | 1008.5 |
| 20260504043046 | 71 | 186 | 11.0 | 19.0 | 0.00 | 0.00 | 0.00 | 41 | 1008.6 |